Volver al catálogo

STARLINK-5629

ActivoComunicacionesVLEO
NORAD 55419·PAYLOAD·🇺🇸 United States

Lanzado Jan 31, 2023 desde Vandenberg Space Force Base

Loading…

Próximos Pases (próximas 24 horas)

TLE

ActualizadoSource: CelesTrak SupGP

Época: Sep 14, 2026, 22:18 UTC

1 55419C 23014AE  26257.92965278 -.00007382  00000+0 -61873-3 0  2570
2 55419  70.0010 327.2523 0003395 270.1358 323.5823 14.98327844    11

Sigue STARLINK-5629 en tiempo real con AllMySat

Download on the App Store